Wind_Speed
88 89 91 92 94 97 98 100 101 102 102 103 103 104 105 106 107 108 109 110 111 111 112 113 114 115 116 116 117 117 118 119 120 121 123 124 125 126 127 128 129 130
92 93 95 97 99 100 101 102 103 103 104 104 105 106 107 108 109 110 110 111 112 113 114 115 115 116 117 117 118 119 120 121 122 124 125 126 127 128 129 130 131 132
93 94 96 98 100 101 102 103 104 104 105 106 107 108 109 109 110 110 111 112 113 114 115 116 117 117 118 118 119 120 122 123 124 125 126 127 129 130 131 132 133 134
93 95 96 98 100 101 103 104 105 106 107 107 108 109 109 110 110 111 112 113 114 115 116 117 118 118 119 120 121 122 123 125 126 127 128 130 131 132 133 134 135 135
95 96 98 99 101 102 103 104 105 106 107 108 108 109 110 110 111 112 113 114 115 116 117 118 119 119 120 121 122 123 125 126 128 129 131 132 133 134 134 135 136 136
98 99 100 101 102 103 104 104 105 106 107 108 109 110 111 112 113 114 115 116 117 117 118 118 119 120 121 123 124 125 127 129 130 132 133 133 134 135 135 136 137 137
100 101 102 103 103 104 105 106 107 108 109 110 110 112 113 114 115 115 116 116 117 117 118 119 120 122 123 125 126 128 129 131 132 133 134 134 135 136 136 137 137 137
101 102 103 104 105 106 107 108 109 109 110 111 113 114 114 115 115 115 115 116 117 118 120 121 122 124 125 127 128 130 131 132 133 134 135 136 136 136 136 136 136 135
102 103 104 105 106 107 108 109 110 111 112 113 113 113 113 113 114 115 116 117 119 120 121 123 124 126 127 128 130 131 132 133 134 135 135 135 135 134 134 133 132 131
104 104 105 106 107 108 109 110 111 111 112 112 112 112 113 114 115 116 118 119 120 122 123 125 126 127 128 130 131 132 133 134 134 134 133 132 131 130 128 127 127 126
104 104 105 106 107 108 108 109 109 109 110 110 111 112 114 115 117 118 120 121 122 123 124 126 127 129 130 131 132 132 132 131 130 129 128 126 125 124 123 123 123 124
102 103 104 105 106 107 107 108 108 109 110 112 113 114 116 117 118 120 121 122 123 124 126 128 129 130 130 130 129 128 126 125 123 122 121 120 120 120 120 121 122 124
102 103 104 105 106 107 108 108 109 111 112 113 114 116 117 118 119 121 122 123 125 126 127 128 127 126 125 123 121 120 118 117 117 116 116 117 117 118 119 121 123 125
103 104 105 106 107 108 109 110 111 112 113 114 116 117 118 119 121 122 123 124 125 125 124 123 121 118 116 114 113 111 111 111 111 112 113 115 116 118 120 122 124 126
103 105 106 107 107 109 110 111 112 113 114 115 117 118 119 120 121 122 122 121 120 118 116 114 111 109 107 106 105 104 105 106 108 110 112 114 116 118 120 122 124 126
103 105 106 107 108 109 110 111 113 114 115 116 117 118 118 119 118 117 115 113 111 109 107 104 103 102 101 101 102 102 104 106 108 110 112 114 116 118 120 122 124 126
102 104 105 106 108 109 110 111 112 113 114 114 114 114 113 112 110 108 106 104 102 101 99 98 98 99 100 101 103 104 106 108 109 111 113 115 117 119 120 122 124 126
101 102 104 105 106 107 108 108 109 109 109 108 107 106 104 102 100 98 97 96 96 96 96 97 98 100 101 103 105 106 108 110 111 113 115 116 118 119 121 123 125 126
98 99 100 101 102 102 102 102 101 101 99 98 96 95 93 92 91 91 91 92 93 95 96 98 100 101 103 105 106 108 109 111 113 114 116 118 119 120 122 123 124 125
92 93 93 93 93 92 91 90 89 88 87 86 85 85 85 85 87 88 90 92 94 96 98 100 102 103 105 106 108 109 111 113 114 116 117 118 120 120 121 122 123 123
81 81 80 79 78 77 77 76 76 77 78 79 80 81 82 84 87 89 92 94 96 98 100 102 103 105 107 108 109 111 112 114 115 116 117 118 119 119 120 120 121 121
68 67 66 66 66 67 68 70 72 74 76 78 79 81 83 85 88 91 93 95 97 99 101 103 105 106 108 109 110 111 112 113 115 116 116 117 117 117 117 118 119 119
59 59 59 61 63 65 67 70 73 75 77 79 80 82 84 86 89 91 94 95 97 99 101 103 105 106 108 109 110 110 111 112 113 113 114 114 114 114 116 117 118 119
57 58 59 61 64 67 70 72 74 77 79 80 81 82 85 87 90 92 94 95 97 98 100 102 104 106 107 108 109 109 109 110 110 110 111 111 112 113 115 116 118 119
59 60 61 64 67 70 73 75 77 79 81 82 83 84 86 89 91 93 94 95 97 98 100 102 103 105 106 107 108 108 107 107 108 108 109 110 111 113 115 116 118 119
62 63 64 67 69 72 75 77 79 81 82 84 85 86 88 90 92 93 95 95 97 98 100 101 103 105 106 106 106 106 106 106 107 108 109 110 111 113 115 116 117 118
Wind_Direction
256 258 259 261 263 265 266 268 270 271 273 274 275 276 277 279 280 281 282 283 284 284 285 285 285 286 286 287 287 287 287 287 287 287 286 286 286 286 286 286 286 286
258 259 260 262 263 265 267 269 270 272 273 275 276 277 278 279 281 282 283 284 284 285 285 286 286 287 287 288 288 288 288 288 288 287 287 288 288 288 288 288 288 288
259 260 261 263 264 266 268 270 271 273 274 275 276 277 279 280 281 282 283 284 284 285 286 286 287 288 288 289 289 289 288 288 289 289 289 290 290 290 289 289 289 289
259 260 262 263 265 267 268 270 271 273 274 275 276 278 279 280 281 282 283 283 284 285 286 287 287 288 289 289 289 289 289 290 290 290 290 290 290 290 290 290 290 289
258 259 261 263 265 267 269 270 271 273 274 275 276 277 278 279 281 282 283 284 285 285 286 287 288 289 289 289 289 290 290 290 290 290 290 290 290 290 290 290 290 291
258 259 261 262 264 266 268 269 270 272 273 275 276 277 279 280 281 282 283 284 285 286 287 288 288 289 289 289 289 289 289 289 290 290 290 290 291 291 291 291 292 292
259 260 262 263 264 266 267 269 270 272 274 275 277 278 280 281 282 283 284 285 286 287 287 288 288 288 288 289 289 289 290 290 290 291 291 292 292 292 293 293 293 293
259 261 263 264 266 267 269 271 272 274 275 277 278 280 281 282 284 284 285 286 286 286 286 287 287 288 288 289 289 290 290 291 292 292 292 293 293 293 293 293 293 293
261 262 264 266 267 269 270 272 274 275 277 278 280 281 283 283 284 284 285 285 285 286 287 287 288 288 289 290 290 291 292 292 292 293 293 293 293 293 293 293 293 293
263 264 265 267 269 270 272 274 275 277 279 280 281 282 282 283 283 284 284 285 286 286 287 288 289 289 290 291 291 292 292 292 293 293 293 293 293 292 292 292 292 292
265 267 268 270 271 272 274 275 277 278 279 280 280 281 282 282 283 284 285 285 286 287 288 289 290 290 291 291 292 292 292 292 292 292 292 292 292 292 292 292 293 293
267 269 270 271 272 273 274 275 276 277 278 279 280 281 282 283 283 284 285 286 287 288 289 289 290 290 291 291 291 291 291 291 291 291 291 292 292 293 294 294 294 295
268 269 270 271 272 273 274 275 276 277 278 279 280 281 282 283 284 285 286 287 288 288 289 289 290 290 290 290 290 290 290 291 291 292 292 293 294 295 295 295 295 295
267 268 270 271 272 274 275 276 277 278 279 280 281 282 283 284 285 286 287 287 288 288 288 289 289 289 289 289 290 290 291 292 293 293 294 295 295 295 295 295 295 295
268 269 270 271 273 274 275 276 277 278 280 281 282 283 284 285 285 286 286 287 287 287 287 287 288 288 288 289 290 291 292 293 293 294 294 294 294 294 295 295 295 294
268 269 271 272 273 274 276 277 278 279 280 281 282 283 284 284 285 285 285 286 286 286 286 286 287 288 289 290 290 291 291 292 292 293 293 293 293 294 294 294 294 294
269 270 272 273 274 275 277 278 279 280 280 281 282 283 283 284 284 284 284 284 285 285 286 287 288 289 289 290 290 291 291 291 291 292 292 293 293 293 294 294 294 293
271 272 273 274 275 276 277 278 279 280 280 281 282 282 282 282 283 283 284 284 285 286 287 288 289 289 289 290 290 290 290 291 291 292 292 293 293 293 293 293 293 293
272 273 273 274 275 276 277 278 279 280 280 280 281 281 282 282 283 284 285 286 287 287 288 288 289 289 289 289 290 290 291 291 291 292 292 293 293 293 293 293 293 293
272 272 273 275 276 277 278 278 279 279 280 281 281 283 284 285 286 287 287 287 287 288 288 288 288 289 289 289 290 290 291 291 292 292 293 293 294 294 294 294 294 294
272 273 274 275 276 277 278 279 280 281 282 283 284 286 286 287 286 286 286 287 287 287 288 288 288 289 289 289 290 291 291 292 293 293 294 294 295 295 295 296 296 296
271 272 274 275 277 278 279 280 281 282 283 284 285 285 285 285 285 285 286 287 287 288 288 289 289 289 290 290 291 292 293 293 294 295 295 296 297 297 297 297 298 298
272 274 275 277 278 279 280 280 281 281 282 283 284 284 285 285 285 286 287 288 288 289 289 290 290 291 291 292 293 293 294 295 296 297 297 298 298 299 299 299 300 300
275 276 277 278 278 278 279 279 280 281 282 283 284 285 286 286 287 288 288 289 290 291 291 292 292 293 293 294 295 295 296 297 298 298 299 300 300 300 301 301 301 301
276 277 278 278 279 279 280 280 281 282 283 284 285 286 287 287 288 289 290 291 292 292 293 294 295 295 296 297 297 298 299 299 300 300 301 301 301 302 302 302 302 302
278 279 280 280 281 281 282 283 283 284 285 286 287 287 288 289 290 291 292 292 293 294 295 296 298 298 299 299 300 300 301 302 302 302 302 302 303 303 303 302 303 303
Height
10647 10646 10645 10644 10642 10641 10641 10641 10641 10641 10640 10640 10639 10638 10637 10636 10635 10634 10632 10630 10629 10627 10625 10622 10620 10617 10615 10612 10608 10605 10602 10598 10594 10591 10587 10583 10579 10575 10571 10567 10563 10558
10639 10639 10638 10636 10635 10634 10634 10633 10633 10632 10632 10631 10630 10629 10628 10626 10625 10623 10621 10619 10617 10614 10612 10609 10607 10604 10601 10598 10594 10590 10586 10583 10579 10574 10570 10566 10561 10557 10552 10548 10544 10539
10631 10630 10629 10628 10628 10627 10626 10625 10625 10624 10623 10622 10620 10619 10618 10617 10615 10613 10611 10609 10606 10603 10600 10597 10594 10591 10588 10584 10580 10576 10571 10567 10562 10557 10553 10548 10543 10539 10534 10529 10525 10520
10623 10622 10621 10620 10619 10619 10618 10617 10616 10615 10614 10613 10612 10611 10610 10608 10606 10604 10601 10598 10595 10592 10589 10586 10582 10578 10575 10570 10566 10561 10556 10551 10546 10541 10536 10532 10526 10522 10516 10511 10506 10501
10615 10614 10614 10613 10612 10611 10610 10610 10609 10607 10606 10605 10604 10602 10600 10598 10596 10593 10590 10587 10584 10581 10577 10573 10570 10566 10561 10556 10551 10546 10541 10536 10531 10526 10520 10515 10510 10505 10499 10493 10488 10482
10608 10607 10606 10605 10605 10604 10603 10602 10601 10599 10598 10596 10594 10592 10590 10587 10585 10582 10579 10576 10572 10569 10565 10561 10557 10552 10547 10542 10537 10532 10527 10521 10515 10510 10504 10498 10493 10487 10482 10475 10470 10463
10600 10599 10599 10598 10597 10596 10595 10593 10592 10590 10589 10587 10584 10582 10579 10577 10574 10571 10568 10564 10561 10557 10553 10548 10544 10539 10533 10528 10523 10518 10512 10506 10500 10493 10487 10481 10475 10470 10464 10458 10452 10446
10592 10591 10591 10590 10589 10588 10586 10584 10583 10581 10579 10577 10575 10572 10569 10566 10563 10560 10556 10553 10549 10544 10540 10535 10530 10525 10520 10514 10509 10503 10496 10490 10484 10477 10471 10465 10459 10453 10447 10441 10435 10429
10584 10584 10583 10582 10581 10579 10578 10576 10574 10572 10570 10567 10565 10562 10559 10556 10552 10548 10544 10540 10536 10531 10527 10522 10517 10512 10506 10500 10494 10488 10481 10474 10468 10461 10455 10449 10443 10437 10431 10425 10418 10412
10577 10576 10575 10574 10573 10571 10569 10567 10565 10563 10561 10558 10555 10552 10548 10544 10540 10536 10532 10528 10524 10519 10514 10509 10504 10498 10492 10486 10480 10473 10466 10459 10453 10446 10440 10434 10429 10422 10416 10410 10403 10397
10569 10568 10567 10566 10564 10562 10560 10558 10556 10554 10551 10547 10544 10540 10536 10532 10528 10524 10520 10515 10511 10506 10501 10496 10490 10484 10478 10472 10466 10459 10452 10446 10439 10432 10426 10420 10414 10408 10402 10395 10388 10381
10561 10560 10559 10557 10555 10553 10550 10548 10546 10543 10540 10536 10533 10529 10525 10521 10516 10512 10508 10503 10499 10494 10488 10483 10477 10471 10465 10459 10453 10446 10439 10432 10425 10418 10413 10406 10400 10394 10387 10380 10373 10366
10553 10551 10549 10547 10545 10543 10540 10538 10535 10532 10529 10525 10522 10518 10514 10509 10505 10500 10496 10491 10486 10481 10475 10469 10464 10458 10452 10446 10440 10434 10426 10418 10411 10405 10399 10393 10387 10380 10373 10366 10359 10351
10544 10542 10540 10538 10536 10533 10530 10527 10524 10521 10518 10515 10511 10507 10502 10497 10493 10488 10483 10478 10473 10468 10462 10456 10451 10445 10440 10434 10428 10422 10414 10406 10399 10393 10387 10381 10374 10367 10360 10353 10345 10338
10535 10533 10531 10529 10526 10523 10520 10517 10514 10511 10507 10504 10499 10495 10490 10485 10480 10475 10470 10465 10460 10455 10450 10444 10438 10433 10427 10422 10417 10410 10404 10395 10388 10382 10376 10369 10362 10354 10347 10340 10332 10324
10527 10524 10521 10519 10516 10513 10510 10507 10504 10500 10496 10492 10488 10483 10478 10473 10468 10463 10457 10453 10447 10443 10438 10432 10427 10422 10416 10411 10406 10400 10394 10386 10378 10371 10365 10358 10351 10343 10335 10327 10319 10310
10517 10514 10511 10509 10506 10503 10500 10496 10493 10489 10485 10481 10476 10472 10467 10461 10456 10451 10445 10441 10436 10431 10427 10422 10416 10411 10405 10400 10395 10389 10382 10375 10367 10360 10353 10346 10339 10331 10323 10314 10306 10297
10507 10504 10502 10499 10495 10492 10489 10485 10482 10478 10473 10469 10465 10460 10456 10450 10445 10440 10435 10430 10425 10420 10416 10411 10405 10400 10395 10389 10383 10377 10370 10363 10355 10348 10340 10333 10325 10318 10310 10301 10292 10283
10497 10494 10491 10488 10485 10482 10478 10475 10471 10467 10462 10458 10454 10450 10445 10441 10435 10430 10425 10420 10414 10410 10405 10401 10395 10389 10383 10378 10371 10365 10357 10349 10342 10335 10327 10320 10312 10304 10295 10286 10277 10268
10486 10483 10480 10478 10476 10472 10468 10465 10460 10456 10452 10448 10444 10440 10436 10431 10426 10421 10416 10410 10404 10399 10394 10389 10384 10377 10371 10366 10359 10353 10345 10337 10329 10322 10314 10306 10297 10288 10279 10269 10260 10251
10475 10473 10472 10470 10467 10463 10459 10455 10450 10446 10442 10437 10434 10431 10426 10421 10416 10411 10406 10400 10394 10389 10383 10377 10372 10365 10359 10353 10347 10340 10332 10324 10315 10307 10299 10291 10282 10272 10262 10252 10243 10233
10466 10465 10464 10461 10457 10453 10449 10444 10440 10436 10432 10427 10424 10421 10417 10412 10406 10400 10395 10390 10384 10378 10371 10364 10359 10353 10346 10340 10334 10327 10319 10310 10302 10293 10284 10275 10266 10256 10246 10236 10225 10216
10458 10457 10455 10451 10447 10444 10439 10435 10431 10427 10422 10419 10416 10412 10407 10401 10396 10390 10385 10379 10373 10367 10359 10351 10345 10339 10332 10326 10319 10314 10306 10297 10288 10279 10269 10260 10251 10240 10230 10220 10209 10199
10450 10448 10446 10443 10439 10435 10430 10426 10422 10418 10413 10410 10406 10402 10396 10390 10384 10379 10374 10368 10362 10355 10347 10338 10331 10324 10318 10311 10304 10298 10291 10283 10274 10265 10255 10246 10236 10225 10215 10205 10194 10183
10442 10441 10439 10435 10431 10426 10421 10417 10413 10408 10404 10400 10396 10392 10385 10379 10373 10367 10362 10356 10349 10342 10334 10326 10317 10310 10303 10296 10289 10282 10276 10268 10259 10250 10242 10232 10222 10212 10202 10191 10180 10169
10434 10433 10431 10427 10422 10417 10412 10407 10403 10399 10394 10390 10385 10380 10374 10367 10361 10355 10349 10343 10336 10329 10321 10313 10304 10296 10288 10281 10274 10267 10260 10252 10243 10235 10227 10218 10208 10198 10188 10178 10167 10156